South Pass, WY

4:58 AM MDT on March 30, 2017 (GMT -0600)
South Pass

Weather History for KFWZ - January, 2014

Change the Weather History Date:

Monday, January 6, 2014

  Actual Average (KLND) Record (KLND)
Temperature  
Mean Temperature 19 °F -  
Max Temperature 35 °F 28 °F 57 °F (1903)
Min Temperature 3 °F 5 °F -28 °F (1937)
Degree Days  
Heating Degree Days 46    
Moisture  
Dew Point 1 °F    
Average Humidity 43    
Maximum Humidity 64    
Minimum Humidity 26    
Precipitation  
Precipitation 0.01 in - - ()
Sea Level Pressure  
Sea Level Pressure 30.04 in    
Wind  
Wind Speed 4 mph (West)    
Max Wind Speed 14 mph    
Max Gust Speed 9 mph    
Visibility 10 miles    
Events      
Averages and records for this station are not official NWS values.
T = Trace of Precipitation, MM = Missing Value Source: NWS Daily Summary

Daily Weather History Graph

Daily Weather History Graph

Search for Another Location

Airport or City:

Trip Planner

Search our weather history database for the weather conditions in past years. The results will help you decide how hot, cold, wet, or windy it might be!

Date:

Astronomy

Jan. 06, 2014 Rise Set
Actual Time 7:44 AM MST 4:57 PM MST
Civil Twilight 7:13 AM MST 5:29 PM MST
Nautical Twilight 6:37 AM MST 6:04 PM MST
Astronomical Twilight 6:03 AM MST 6:38 PM MST
Moon 10:53 AM MST (1/6) 11:43 PM MST (1/6)
Length of Visible Light 10h 16m
Length of Day
9h 12m
Waxing Crescent, 35% of the Moon is Illuminated
Jan 6
Waxing Crescent
Jan 7
First Quarter
Jan 15
Full
Jan 23
Last Quarter
Jan 30
New

Hourly Weather History & Observations

Time (MST) Temp. Windchill Dew Point Humidity Pressure Visibility Wind Dir Wind Speed Gust Speed Precip Events Conditions
12:15 AM 5.0 °F - -13.0 °F 43% - 10.0 mi Calm Calm - N/A   Clear
12:35 AM 5.0 °F - -14.8 °F 40% - 10.0 mi Calm Calm - N/A   Clear
12:55 AM 3.2 °F - -13.0 °F 47% - 10.0 mi Calm Calm - N/A   Clear
1:15 AM 5.0 °F -4.1 °F -14.8 °F 40% - 10.0 mi WSW 4.6 mph - N/A   Clear
1:35 AM 5.0 °F - -14.8 °F 40% - 10.0 mi Calm Calm - N/A   Clear
1:55 AM 5.0 °F -5.6 °F -14.8 °F 40% - 10.0 mi West 5.8 mph - N/A   Clear
2:15 AM 3.2 °F -6.2 °F -13.0 °F 47% - 10.0 mi WNW 4.6 mph - N/A   Clear
2:35 AM 5.0 °F -4.1 °F -14.8 °F 40% - 10.0 mi NW 4.6 mph - N/A   Clear
2:55 AM 5.0 °F -4.1 °F -14.8 °F 40% - 10.0 mi North 4.6 mph - N/A   Clear
3:15 AM 10.4 °F 2.2 °F -18.4 °F 26% - 10.0 mi NE 4.6 mph - N/A   Clear
3:35 AM 10.4 °F - -18.4 °F 26% - 10.0 mi Calm Calm - N/A   Clear
3:55 AM 8.6 °F 0.1 °F -14.8 °F 34% - 10.0 mi WSW 4.6 mph - N/A   Clear
4:15 AM 10.4 °F - -14.8 °F 31% - 10.0 mi Calm Calm - N/A   Clear
4:35 AM 10.4 °F - -14.8 °F 31% - 10.0 mi Calm Calm - N/A   Clear
4:55 AM 10.4 °F - -14.8 °F 31% - 10.0 mi Calm Calm - N/A   Clear
5:15 AM 12.2 °F - -14.8 °F 29% - 10.0 mi Calm Calm - N/A   Clear
5:35 AM 12.2 °F 6.1 °F -14.8 °F 29% - 10.0 mi North 3.5 mph - N/A   Clear
5:55 AM 12.2 °F - -14.8 °F 29% - 10.0 mi Calm Calm - N/A   Clear
6:15 AM 10.4 °F - -13.0 °F 34% - 10.0 mi Calm Calm - N/A   Clear
6:35 AM 10.4 °F - -13.0 °F 34% - 10.0 mi Calm Calm - N/A   Clear
6:55 AM 12.2 °F 2.9 °F -11.2 °F 34% - 10.0 mi WNW 5.8 mph - N/A   Clear
7:15 AM 12.2 °F - -9.4 °F 38% - 10.0 mi Calm Calm - N/A   Clear
7:35 AM 12.2 °F 6.1 °F -9.4 °F 38% - 10.0 mi NNW 3.5 mph - N/A   Clear
7:55 AM 12.2 °F 4.3 °F -7.6 °F 41% - 10.0 mi NW 4.6 mph - N/A   Clear
8:15 AM 14.0 °F 5.1 °F -5.8 °F 41% - 10.0 mi WNW 5.8 mph - N/A   Clear
8:35 AM 19.4 °F 14.3 °F -2.2 °F 39% - 10.0 mi West 3.5 mph - N/A   Clear
8:55 AM 19.4 °F 14.3 °F 3.2 °F 49% - 10.0 mi West 3.5 mph - N/A   Clear
9:15 AM 23.0 °F - 3.2 °F 43% - 10.0 mi Calm Calm - N/A   Clear
9:35 AM 19.4 °F 12.8 °F 3.2 °F 49% - 10.0 mi WSW 4.6 mph - N/A   Clear
9:55 AM 15.8 °F 7.2 °F 1.4 °F 53% - 10.0 mi SW 5.8 mph - N/A   Clear
10:15 AM 17.6 °F 10.7 °F 3.2 °F 53% - 10.0 mi WSW 4.6 mph - N/A   Clear
10:35 AM 14.0 °F 2.9 °F 3.2 °F 62% - 10.0 mi WSW 8.1 mph - N/A   Clear
10:55 AM 17.6 °F 7.3 °F 5.0 °F 58% - 10.0 mi WSW 8.1 mph - N/A   Clear
11:15 AM 21.2 °F - 6.8 °F 54% - 10.0 mi Calm Calm - N/A   Clear
11:35 AM 24.8 °F - 8.6 °F 50% - 10.0 mi Calm Calm - 0.01 in   Clear
11:55 AM 24.8 °F - 8.6 °F 50% - 10.0 mi Calm Calm - 0.01 in   Clear
12:15 PM 28.4 °F - 10.4 °F 47% - 10.0 mi Calm Calm - N/A   Clear
12:35 PM 32.0 °F 27.5 °F 10.4 °F 41% - 10.0 mi West 4.6 mph - N/A   Clear
12:55 PM 30.2 °F 23.4 °F 10.4 °F 44% 30.03 in 10.0 mi WSW 6.9 mph - N/A   Clear
1:15 PM 30.2 °F 25.4 °F 12.2 °F 47% 30.03 in 10.0 mi WSW 4.6 mph - N/A   Clear
1:35 PM 30.2 °F 22.6 °F 12.2 °F 47% 30.02 in 10.0 mi SW 8.1 mph - N/A   Clear
1:55 PM 30.2 °F 20.2 °F 12.2 °F 47% 30.02 in 10.0 mi WSW 12.7 mph - N/A   Clear
2:15 PM 28.4 °F 17.5 °F 12.2 °F 51% 30.03 in 10.0 mi WSW 13.8 mph - N/A   Clear
2:35 PM 28.4 °F 19.1 °F 12.2 °F 51% 30.03 in 10.0 mi WSW 10.4 mph - N/A   Clear
2:55 PM 28.4 °F 19.1 °F 14.0 °F 55% 30.04 in 10.0 mi WSW 10.4 mph - N/A   Clear
3:15 PM 28.4 °F 20.4 °F 14.0 °F 55% 30.05 in 10.0 mi WSW 8.1 mph - N/A   Clear
3:35 PM 28.4 °F 22.2 °F 14.0 °F 55% 30.06 in 10.0 mi SSW 5.8 mph 9.2 mph N/A   Clear
3:55 PM 24.8 °F 16.1 °F 14.0 °F 64% 30.05 in 10.0 mi WSW 8.1 mph - N/A   Clear
4:15 PM 28.4 °F 19.1 °F 14.0 °F 55% 30.05 in 10.0 mi West 10.4 mph - N/A   Clear
4:35 PM 28.4 °F 20.4 °F 14.0 °F 55% 30.05 in 10.0 mi West 8.1 mph - N/A   Clear
4:55 PM 26.6 °F 18.2 °F 12.2 °F 55% 30.05 in 10.0 mi WSW 8.1 mph - N/A   Clear
5:15 PM 28.4 °F 20.4 °F 12.2 °F 51% 30.05 in 10.0 mi West 8.1 mph - N/A   Clear
5:35 PM 28.4 °F 19.7 °F 12.2 °F 51% 30.05 in 10.0 mi WSW 9.2 mph - N/A   Clear
5:55 PM 24.8 °F 14.6 °F 12.2 °F 59% - 10.0 mi West 10.4 mph - N/A   Clear
6:15 PM 26.6 °F 16.8 °F 12.2 °F 55% - 10.0 mi WSW 10.4 mph - N/A   Clear
6:35 PM 26.6 °F 17.5 °F 10.4 °F 51% - 10.0 mi West 9.2 mph - N/A   Clear
6:55 PM 28.4 °F 20.4 °F 10.4 °F 47% - 10.0 mi West 8.1 mph - N/A   Clear
7:15 PM 30.2 °F 22.6 °F 10.4 °F 44% - 10.0 mi West 8.1 mph - N/A   Clear
7:35 PM 32.0 °F 23.6 °F 8.6 °F 38% - 10.0 mi West 10.4 mph - N/A   Clear
7:55 PM 32.0 °F 25.6 °F 8.6 °F 38% - 10.0 mi West 6.9 mph - N/A   Clear
8:15 PM 32.0 °F 24.8 °F 8.6 °F 38% - 10.0 mi West 8.1 mph - N/A   Clear
8:35 PM 32.0 °F 26.4 °F 8.6 °F 38% - 10.0 mi West 5.8 mph - N/A   Clear
8:55 PM 30.2 °F 26.7 °F 10.4 °F 44% 30.06 in 10.0 mi NNW 3.5 mph - N/A   Clear
9:15 PM 32.0 °F 27.5 °F 6.8 °F 35% 30.07 in 10.0 mi ESE 4.6 mph - N/A   Clear
9:35 PM 32.0 °F - 8.6 °F 38% 30.07 in 10.0 mi Calm Calm - N/A   Clear
9:55 PM 32.0 °F 28.7 °F 8.6 °F 38% 30.06 in 10.0 mi WNW 3.5 mph - N/A   Clear
10:15 PM 32.0 °F - 8.6 °F 38% 30.05 in 10.0 mi Calm Calm - N/A   Clear
10:35 PM 33.8 °F - 8.6 °F 35% 30.05 in 10.0 mi Calm Calm - N/A   Clear
10:55 PM 35.6 °F - 10.4 °F 35% 30.04 in 10.0 mi Calm Calm - N/A   Clear
11:15 PM 33.8 °F 30.8 °F 10.4 °F 38% 30.04 in 10.0 mi WSW 3.5 mph - N/A   Clear
11:35 PM 33.8 °F 27.7 °F 10.4 °F 38% 30.02 in 10.0 mi WSW 6.9 mph - N/A   Clear
11:55 PM 32.0 °F 24.2 °F 6.8 °F 35% 30.01 in 10.0 mi WSW 9.2 mph - N/A   Clear